Location: Estes P
(40.3770°N, 105.5210°W)
Time: 06:37:26
(UTC-06:00)

Hubble Space Telescope - Visible Passes

Search period start: 20 October 2017 00:00
Search period end: 30 October 2017 00:00
Orbit: 537 x 541 km, 28.5° (Epoch: 19 October)

Date Brightness Start Highest point End Pass type
(mag) Time Alt. Az. Time Alt. Az. Time Alt. Az.
21 Oct 3.1 19:53:44 10° S 19:55:02 12° S 19:55:02 12° S visible
22 Oct 3.0 19:42:58 10° SSW 19:44:51 13° S 19:45:28 13° SSE visible
23 Oct 3.0 19:32:22 10° SSW 19:34:34 14° S 19:35:52 12° SSE visible
24 Oct 3.0 19:21:54 10° SSW 19:24:15 15° S 19:26:15 11° SE visible
25 Oct 3.0 19:11:29 10° SW 19:13:56 15° S 19:16:23 10° SE visible
26 Oct 3.1 19:01:09 10° SW 19:03:38 16° S 19:06:06 10° SE visible
27 Oct 3.1 18:50:52 10° SW 18:53:19 15° S 18:55:46 10° SE visible
28 Oct 3.2 18:40:39 10° SW 18:43:01 15° S 18:45:23 10° SSE visible
29 Oct 3.3 18:30:30 10° SW 18:32:42 14° S 18:34:54 10° SSE visible
